星链-30380 (STARLINK-30380 )

导读

STARLINK-30380是美国SpaceX公司星链(Starlink)星座的一颗低轨通信卫星,于2023年9月4日发射升空,作为星链第二代组网卫星,它运行在近地轨道,为全球偏远地区、海洋等场景提供低延迟高速宽带互联网服务。卫星配备氪离子推进系统与相控阵通信天线,支持自主轨道调整与避碰,设计寿命约5-7年,退役后会主动离轨,在大气层中完全烧毁,减少空间碎片影响。它的入轨进一步完善了星链全球覆盖能力,推动卫星互联网服务普及。

基本信息
目录编号:
57780
目录名称:
STARLINK-30380
国际标识:
2023-134K
轨道中心:
EARTH
卫星名称:
星链-30380
卫星全名:
星链-30380 (STARLINK-30380 )
卫星状态:
在轨 (已飞行1018 天)
发射日期:
2023-09-04 UTC
国别 :
美国 (US)
星等 :
--
轨道信息
数据来源 国际轨道数据
星历时间: 2026-06-17T02:56:46+0800
1天前
查看轨道信息
半长轴: 6861.17km
偏心率: 0.0001214
轨道倾角: 43.006°
近地点辐角 253.710°
升交点赤经 354.749°
平近点角 106.362°
近地点: 482.2km
远地点: 483.866km
周期: 94.266分钟
每日圈数: 15.275856
详细信息
固有亮度:
5
最大亮度:
0.3
卫星平台:
Starlink v2.0 mini
覆盖范围:
全球
运营商:
太空探索技术公司
运营商所在国:
美国
制造商(研发单位):
太空探索技术公司
制造商所在国:
美国
使用方式:
暂无
卫星简介
星链(Starlink)计划是由太空探索技术公司(SpaceX)提出的一个巨型低轨卫星互联网星座项目,计划在2019年至2024年间在太空搭建由约1.2万颗卫星组成的“星链”网络,其中1584颗将部署在地球上空550千米处的近地轨道,并从2020年开始工作。该卫星仍在工作。
2D轨道图
3D轨道图
轨道高度分析图
轨道倾角分析图
轨道综合分析图
查看轨道综合分析图